This is the latest recevied weather packets stored in our database for station/object KE5YIM-13. If no packets are shown the sender has not sent any weather packets the latest 10 day(s).
| Time | Temp. | Humidity | Pressure | Rain* | Wind** | Luminosity | Snow |
|---|---|---|---|---|---|---|---|
| 1777597252 | 10° C | 97% | 1009.2 hPa | 0 mm | - | 0 W/m² | - |
| 1777596947 | 10° C | 97% | 1009.2 hPa | 0 mm | - | 0 W/m² | - |
| 1777596645 | 10° C | 97% | 1009.1 hPa | 0 mm | - | 0 W/m² | - |
| 1777596341 | 10° C | 97% | 1009.3 hPa | 0 mm | - | 0 W/m² | - |
| 1777596039 | 10.56° C | 97% | 1009.2 hPa | 0 mm | - | 0 W/m² | - |
| 1777595739 | 10.56° C | 97% | 1009 hPa | 0 mm | - | 0 W/m² | - |
| 1777595435 | 11.11° C | 97% | 1009.3 hPa | 0 mm | - | 0 W/m² | - |
| 1777595132 | 11.11° C | 97% | 1009.3 hPa | 0 mm | - | 0 W/m² | - |
| 1777594827 | 11.11° C | 97% | 1009.1 hPa | 0 mm | - | 0 W/m² | - |
| 1777594524 | 11.11° C | 97% | 1009.3 hPa | 0 mm | - | 0 W/m² | - |
| 1777594220 | 11.11° C | 97% | 1009.1 hPa | 0 mm | - | 0 W/m² | - |
| 1777593916 | 11.11° C | 97% | 1009.1 hPa | 0 mm | - | 0 W/m² | - |
| 1777593613 | 11.67° C | 96% | 1008.9 hPa | 0 mm | - | 0 W/m² | - |
| 1777593309 | 11.67° C | 96% | 1009 hPa | 0 mm | - | 1 W/m² | - |
| 1777593003 | 11.67° C | 96% | 1008.9 hPa | 0 mm | - | 2 W/m² | - |
| 1777592697 | 11.67° C | 97% | 1008.9 hPa | 0 mm | - | 3 W/m² | - |
| 1777592393 | 11.67° C | 97% | 1009 hPa | 0 mm | - | 4 W/m² | - |
| 1777592088 | 11.67° C | 97% | 1008.9 hPa | 0 mm | - | 6 W/m² | - |
| 1777591786 | 11.67° C | 97% | 1008.9 hPa | 0 mm | - | 9 W/m² | - |
| 1777591481 | 11.67° C | 97% | 1008.7 hPa | 0 mm | - | 13 W/m² | - |
| 1777591178 | 12.22° C | 97% | 1008.9 hPa | 0 mm | - | 14 W/m² | - |
| 1777590872 | 12.22° C | 97% | 1008.7 hPa | 0 mm | - | 13 W/m² | - |
| 1777590570 | 12.22° C | 96% | 1008.6 hPa | 0 mm | - | 15 W/m² | - |
| 1777590266 | 12.22° C | 96% | 1008.5 hPa | 0 mm | - | 18 W/m² | - |
| 1777589963 | 12.22° C | 96% | 1008.5 hPa | 0 mm | - | 23 W/m² | - |
* Rain latest hour (hover to see other rain measurements)
** Current wind speed in m/s (hover to see current wind gust speed)